Year,Month,Day,Hour,Minute,Value (Times are PST for temperature in C)
2010,08,15,00,00,19.90
2010,08,15,00,01,19.90
2010,08,15,00,02,19.90
2010,08,15,00,03,19.90
2010,08,15,00,04,19.90
2010,08,15,00,05,19.90
2010,08,15,00,06,19.90
2010,08,15,00,07,19.90
2010,08,15,00,08,19.90
2010,08,15,00,09,19.80
2010,08,15,00,10,19.80
2010,08,15,00,11,19.80
2010,08,15,00,12,19.80
2010,08,15,00,13,19.70
2010,08,15,00,14,19.70
2010,08,15,00,15,19.60
2010,08,15,00,16,19.60
2010,08,15,00,17,19.60
2010,08,15,00,18,19.50
2010,08,15,00,19,19.50
2010,08,15,00,20,19.40
2010,08,15,00,21,19.40
2010,08,15,00,22,19.40
2010,08,15,00,23,19.30
2010,08,15,00,24,19.30
2010,08,15,00,25,19.30
2010,08,15,00,26,19.20
2010,08,15,00,27,19.20
2010,08,15,00,28,19.10
2010,08,15,00,29,19.10
2010,08,15,00,30,19.10
2010,08,15,00,31,19.10
2010,08,15,00,32,19.00
2010,08,15,00,33,18.90
2010,08,15,00,34,18.90
2010,08,15,00,35,18.90
2010,08,15,00,36,18.90
2010,08,15,00,37,18.90
2010,08,15,00,38,18.80
2010,08,15,00,39,18.80
2010,08,15,00,40,18.70
2010,08,15,00,41,18.70
2010,08,15,00,42,18.70
2010,08,15,00,43,18.60
2010,08,15,00,44,18.60
2010,08,15,00,45,18.60
2010,08,15,00,46,18.60
2010,08,15,00,47,18.50
2010,08,15,00,48,18.50
2010,08,15,00,49,18.50
2010,08,15,00,50,18.40
2010,08,15,00,51,18.40
2010,08,15,00,52,18.40
2010,08,15,00,53,18.40
2010,08,15,00,54,18.40
2010,08,15,00,55,18.30
2010,08,15,00,56,18.30
2010,08,15,00,57,18.30
2010,08,15,00,58,18.20
2010,08,15,00,59,18.20
2010,08,15,01,00,18.20
2010,08,15,01,01,18.20
2010,08,15,01,02,18.20
2010,08,15,01,03,18.20
2010,08,15,01,04,18.20
2010,08,15,01,05,18.20
2010,08,15,01,06,18.20
2010,08,15,01,07,18.10
2010,08,15,01,08,18.10
2010,08,15,01,09,18.10
2010,08,15,01,10,18.10
2010,08,15,01,11,18.00
2010,08,15,01,12,17.90
2010,08,15,01,13,17.90
2010,08,15,01,14,17.90
2010,08,15,01,15,17.90
2010,08,15,01,16,17.90
2010,08,15,01,17,17.90
2010,08,15,01,18,17.90
2010,08,15,01,19,17.90
2010,08,15,01,20,17.80
2010,08,15,01,21,17.80
2010,08,15,01,22,17.80
2010,08,15,01,23,17.80
2010,08,15,01,24,17.80
2010,08,15,01,25,17.80
2010,08,15,01,26,17.80
2010,08,15,01,27,17.80
2010,08,15,01,28,17.80
2010,08,15,01,29,17.70
2010,08,15,01,30,17.70
2010,08,15,01,31,17.70
2010,08,15,01,32,17.70
2010,08,15,01,33,17.60
2010,08,15,01,34,17.60
2010,08,15,01,35,17.60
2010,08,15,01,36,17.60
2010,08,15,01,37,17.50
2010,08,15,01,38,17.50
2010,08,15,01,39,17.50
2010,08,15,01,40,17.50
2010,08,15,01,41,17.50
2010,08,15,01,42,17.50
2010,08,15,01,43,17.50
2010,08,15,01,44,17.40
2010,08,15,01,45,17.40
2010,08,15,01,46,17.40
2010,08,15,01,47,17.40
2010,08,15,01,48,17.40
2010,08,15,01,49,17.40
2010,08,15,01,50,17.40
2010,08,15,01,51,17.30
2010,08,15,01,52,17.30
2010,08,15,01,53,17.30
2010,08,15,01,54,17.30
2010,08,15,01,55,17.30
2010,08,15,01,56,17.30
2010,08,15,01,57,17.30
2010,08,15,01,58,17.30
2010,08,15,01,59,17.30
2010,08,15,02,00,17.30
2010,08,15,02,01,17.30
2010,08,15,02,02,17.30
2010,08,15,02,03,17.30
2010,08,15,02,04,17.30
2010,08,15,02,05,17.30
2010,08,15,02,06,17.30
2010,08,15,02,07,17.30
2010,08,15,02,08,17.30
2010,08,15,02,09,17.30
2010,08,15,02,10,17.30
2010,08,15,02,11,17.30
2010,08,15,02,12,17.30
2010,08,15,02,13,17.30
2010,08,15,02,14,17.30
2010,08,15,02,15,17.30
2010,08,15,02,16,17.30
2010,08,15,02,17,17.30
2010,08,15,02,18,17.30
2010,08,15,02,19,17.30
2010,08,15,02,20,17.30
2010,08,15,02,21,17.30
2010,08,15,02,22,17.20
2010,08,15,02,23,17.20
2010,08,15,02,24,17.20
2010,08,15,02,25,17.20
2010,08,15,02,26,17.10
2010,08,15,02,27,17.10
2010,08,15,02,28,17.10
2010,08,15,02,29,17.10
2010,08,15,02,30,17.00
2010,08,15,02,31,17.00
2010,08,15,02,32,17.00
2010,08,15,02,33,17.00
2010,08,15,02,34,17.00
2010,08,15,02,35,17.00
2010,08,15,02,36,17.00
2010,08,15,02,37,17.00
2010,08,15,02,38,17.00
2010,08,15,02,39,17.00
2010,08,15,02,40,17.00
2010,08,15,02,41,17.00
2010,08,15,02,42,17.00
2010,08,15,02,43,17.10
2010,08,15,02,44,17.10
2010,08,15,02,45,17.10
2010,08,15,02,46,17.20
2010,08,15,02,47,17.20
2010,08,15,02,48,17.20
2010,08,15,02,49,17.20
2010,08,15,02,50,17.20
2010,08,15,02,51,17.20
2010,08,15,02,52,17.20
2010,08,15,02,53,17.20
2010,08,15,02,54,17.20
2010,08,15,02,55,17.20
2010,08,15,02,56,17.20
2010,08,15,02,57,17.30
2010,08,15,02,58,17.30
2010,08,15,02,59,17.30
2010,08,15,03,00,17.30
2010,08,15,03,01,17.30
2010,08,15,03,02,17.30
2010,08,15,03,03,17.30
2010,08,15,03,04,17.30
2010,08,15,03,05,17.30
2010,08,15,03,06,17.40
2010,08,15,03,07,17.40
2010,08,15,03,08,17.40
2010,08,15,03,09,17.40
2010,08,15,03,10,17.40
2010,08,15,03,11,17.50
2010,08,15,03,12,17.50
2010,08,15,03,13,17.60
2010,08,15,03,14,17.60
2010,08,15,03,15,17.70
2010,08,15,03,16,17.70
2010,08,15,03,17,17.70
2010,08,15,03,18,17.80
2010,08,15,03,19,17.80
2010,08,15,03,20,17.80
2010,08,15,03,21,17.80
2010,08,15,03,22,17.80
2010,08,15,03,23,17.80
2010,08,15,03,24,17.80
2010,08,15,03,25,17.80
2010,08,15,03,26,17.80
2010,08,15,03,27,17.80
2010,08,15,03,28,17.80
2010,08,15,03,29,17.80
2010,08,15,03,30,17.80
2010,08,15,03,31,17.80
2010,08,15,03,32,17.70
2010,08,15,03,33,17.70
2010,08,15,03,34,17.70
2010,08,15,03,35,17.70
2010,08,15,03,36,17.70
2010,08,15,03,37,17.80
2010,08,15,03,38,17.80
2010,08,15,03,39,17.80
2010,08,15,03,40,17.90
2010,08,15,03,41,17.90
2010,08,15,03,42,17.90
2010,08,15,03,43,17.90
2010,08,15,03,44,17.90
2010,08,15,03,45,17.90
2010,08,15,03,46,17.90
2010,08,15,03,47,17.90
2010,08,15,03,48,17.80
2010,08,15,03,49,17.80
2010,08,15,03,50,17.80
2010,08,15,03,51,17.90
2010,08,15,03,52,17.90
2010,08,15,03,53,17.90
2010,08,15,03,54,17.90
2010,08,15,03,55,17.90
2010,08,15,03,56,17.90
2010,08,15,03,57,17.80
2010,08,15,03,58,17.90
2010,08,15,03,59,17.90
2010,08,15,04,00,17.90
2010,08,15,04,01,17.90
2010,08,15,04,02,17.90
2010,08,15,04,03,17.90
2010,08,15,04,04,17.90
2010,08,15,04,05,17.90
2010,08,15,04,06,17.90
2010,08,15,04,07,17.90
2010,08,15,04,08,17.90
2010,08,15,04,09,17.90
2010,08,15,04,10,17.90
2010,08,15,04,11,17.90
2010,08,15,04,12,17.80
2010,08,15,04,13,17.90
2010,08,15,04,14,17.90
2010,08,15,04,15,17.90
2010,08,15,04,16,17.90
2010,08,15,04,17,17.90
2010,08,15,04,18,17.90
2010,08,15,04,19,17.90
2010,08,15,04,20,17.90
2010,08,15,04,21,17.90
2010,08,15,04,22,17.90
2010,08,15,04,23,17.90
2010,08,15,04,24,17.90
2010,08,15,04,25,17.90
2010,08,15,04,26,17.90
2010,08,15,04,27,17.90
2010,08,15,04,28,18.00
2010,08,15,04,29,18.10
2010,08,15,04,30,18.10
2010,08,15,04,31,18.10
2010,08,15,04,32,18.10
2010,08,15,04,33,18.10
2010,08,15,04,34,18.10
2010,08,15,04,35,18.10
2010,08,15,04,36,18.00
2010,08,15,04,37,17.90
2010,08,15,04,38,17.90
2010,08,15,04,39,17.90
2010,08,15,04,40,17.90
2010,08,15,04,41,17.90
2010,08,15,04,42,17.90
2010,08,15,04,43,17.90
2010,08,15,04,44,17.90
2010,08,15,04,45,17.90
2010,08,15,04,46,17.90
2010,08,15,04,47,17.90
2010,08,15,04,48,17.90
2010,08,15,04,49,17.90
2010,08,15,04,50,17.90
2010,08,15,04,51,17.90
2010,08,15,04,52,17.90
2010,08,15,04,53,17.90
2010,08,15,04,54,17.90
2010,08,15,04,55,18.00
2010,08,15,04,56,18.10
2010,08,15,04,57,18.10
2010,08,15,04,58,18.10
2010,08,15,04,59,18.10
2010,08,15,05,00,18.10
2010,08,15,05,01,18.10
2010,08,15,05,02,18.10
2010,08,15,05,03,18.10
2010,08,15,05,04,18.10
2010,08,15,05,05,18.10
2010,08,15,05,06,18.10
2010,08,15,05,07,18.10
2010,08,15,05,08,18.10
2010,08,15,05,09,18.10
2010,08,15,05,10,18.10
2010,08,15,05,11,18.10
2010,08,15,05,12,18.10
2010,08,15,05,13,18.10
2010,08,15,05,14,18.10
2010,08,15,05,15,18.10
2010,08,15,05,16,18.20
2010,08,15,05,17,18.20
2010,08,15,05,18,18.20
2010,08,15,05,19,18.20
2010,08,15,05,20,18.20
2010,08,15,05,21,18.20
2010,08,15,05,22,18.20
2010,08,15,05,23,18.20
2010,08,15,05,24,18.20
2010,08,15,05,25,18.20
2010,08,15,05,26,18.20
2010,08,15,05,27,18.20
2010,08,15,05,28,18.20
2010,08,15,05,29,18.20
2010,08,15,05,30,18.10
2010,08,15,05,31,18.20
2010,08,15,05,32,18.20
2010,08,15,05,33,18.20
2010,08,15,05,34,18.20
2010,08,15,05,35,18.20
2010,08,15,05,36,18.20
2010,08,15,05,37,18.20
2010,08,15,05,38,18.20
2010,08,15,05,39,18.20
2010,08,15,05,40,18.20
2010,08,15,05,41,18.20
2010,08,15,05,42,18.10
2010,08,15,05,43,18.10
2010,08,15,05,44,18.10
2010,08,15,05,45,18.00
2010,08,15,05,46,17.90
2010,08,15,05,47,17.90
2010,08,15,05,48,17.90
2010,08,15,05,49,17.80
2010,08,15,05,50,17.70
2010,08,15,05,51,17.70
2010,08,15,05,52,17.60
2010,08,15,05,53,17.60
2010,08,15,05,54,17.60
2010,08,15,05,55,17.60
2010,08,15,05,56,17.60
2010,08,15,05,57,17.60
2010,08,15,05,58,17.70
2010,08,15,05,59,17.80
2010,08,15,06,00,17.80
2010,08,15,06,01,17.90
2010,08,15,06,02,17.90
2010,08,15,06,03,18.00
2010,08,15,06,04,18.10
2010,08,15,06,05,18.10
2010,08,15,06,06,18.20
2010,08,15,06,07,18.20
2010,08,15,06,08,18.20
2010,08,15,06,09,18.20
2010,08,15,06,10,18.20
2010,08,15,06,11,18.20
2010,08,15,06,12,18.20
2010,08,15,06,13,18.20
2010,08,15,06,14,18.10
2010,08,15,06,15,18.10
2010,08,15,06,16,18.00
2010,08,15,06,17,17.90
2010,08,15,06,18,17.90
2010,08,15,06,19,17.90
2010,08,15,06,20,17.80
2010,08,15,06,21,17.70
2010,08,15,06,22,17.60
2010,08,15,06,23,17.40
2010,08,15,06,24,17.30
2010,08,15,06,25,17.10
2010,08,15,06,26,16.90
2010,08,15,06,27,16.70
2010,08,15,06,28,16.50
2010,08,15,06,29,16.30
2010,08,15,06,30,16.10
2010,08,15,06,31,16.00
2010,08,15,06,32,15.80
2010,08,15,06,33,15.70
2010,08,15,06,34,15.60
2010,08,15,06,35,15.60
2010,08,15,06,36,15.50
2010,08,15,06,37,15.50
2010,08,15,06,38,15.50
2010,08,15,06,39,15.40
2010,08,15,06,40,15.40
2010,08,15,06,41,15.30
2010,08,15,06,42,15.30
2010,08,15,06,43,15.30
2010,08,15,06,44,15.30
2010,08,15,06,45,15.30
2010,08,15,06,46,15.30
2010,08,15,06,47,15.30
2010,08,15,06,48,15.30
2010,08,15,06,49,15.30
2010,08,15,06,50,15.30
2010,08,15,06,51,15.30
2010,08,15,06,52,15.30
2010,08,15,06,53,15.30
2010,08,15,06,54,15.30
2010,08,15,06,55,15.30
2010,08,15,06,56,15.20
2010,08,15,06,57,15.20
2010,08,15,06,58,15.10
2010,08,15,06,59,15.10
2010,08,15,07,00,15.00
2010,08,15,07,01,14.90
2010,08,15,07,02,14.90
2010,08,15,07,03,14.80
2010,08,15,07,04,14.70
2010,08,15,07,05,14.60
2010,08,15,07,06,14.60
2010,08,15,07,07,14.50
2010,08,15,07,08,14.40
2010,08,15,07,09,14.30
2010,08,15,07,10,14.20
2010,08,15,07,11,14.20
2010,08,15,07,12,14.20
2010,08,15,07,13,14.20
2010,08,15,07,14,14.20
2010,08,15,07,15,14.30
2010,08,15,07,16,14.30
2010,08,15,07,17,14.30
2010,08,15,07,18,14.40
2010,08,15,07,19,14.40
2010,08,15,07,20,14.50
2010,08,15,07,21,14.60
2010,08,15,07,22,14.70
2010,08,15,07,23,14.80
2010,08,15,07,24,14.90
2010,08,15,07,25,15.00
2010,08,15,07,26,15.00
2010,08,15,07,27,15.10
2010,08,15,07,28,15.10
2010,08,15,07,29,15.20
2010,08,15,07,30,15.20
2010,08,15,07,31,15.30
2010,08,15,07,32,15.30
2010,08,15,07,33,15.40
2010,08,15,07,34,15.50
2010,08,15,07,35,15.50
2010,08,15,07,36,15.60
2010,08,15,07,37,15.70
2010,08,15,07,38,15.80
2010,08,15,07,39,15.90
2010,08,15,07,40,16.00
2010,08,15,07,41,16.10
2010,08,15,07,42,16.10
2010,08,15,07,43,16.10
2010,08,15,07,44,16.20
2010,08,15,07,45,16.20
2010,08,15,07,46,16.30
2010,08,15,07,47,16.40
2010,08,15,07,48,16.40
2010,08,15,07,49,16.60
2010,08,15,07,50,16.70
2010,08,15,07,51,16.70
2010,08,15,07,52,16.80
2010,08,15,07,53,16.90
2010,08,15,07,54,17.00
2010,08,15,07,55,17.00
2010,08,15,07,56,17.10
2010,08,15,07,57,17.20
2010,08,15,07,58,17.30
2010,08,15,07,59,17.40
2010,08,15,08,00,17.50
2010,08,15,08,01,17.70
2010,08,15,08,02,17.80
2010,08,15,08,03,18.00
2010,08,15,08,04,18.20
2010,08,15,08,05,18.40
2010,08,15,08,06,18.60
2010,08,15,08,07,18.90
2010,08,15,08,08,19.10
2010,08,15,08,09,19.30
2010,08,15,08,10,19.50
2010,08,15,08,11,19.80
2010,08,15,08,12,20.10
2010,08,15,08,13,20.40
2010,08,15,08,14,20.60
2010,08,15,08,15,20.80
2010,08,15,08,16,21.00
2010,08,15,08,17,21.20
2010,08,15,08,18,21.40
2010,08,15,08,19,21.60
2010,08,15,08,20,21.70
2010,08,15,08,21,21.90
2010,08,15,08,22,22.00
2010,08,15,08,23,22.10
2010,08,15,08,24,22.20
2010,08,15,08,25,22.30
2010,08,15,08,26,22.50
2010,08,15,08,27,22.60
2010,08,15,08,28,22.70
2010,08,15,08,29,22.80
2010,08,15,08,30,22.80
2010,08,15,08,31,22.90
2010,08,15,08,32,23.00
2010,08,15,08,33,23.10
2010,08,15,08,34,23.10
2010,08,15,08,35,23.20
2010,08,15,08,36,23.20
2010,08,15,08,37,23.30
2010,08,15,08,38,23.30
2010,08,15,08,39,23.30
2010,08,15,08,40,23.30
2010,08,15,08,41,23.30
2010,08,15,08,42,23.30
2010,08,15,08,43,23.30
2010,08,15,08,44,23.30
2010,08,15,08,45,23.30
2010,08,15,08,46,23.30
2010,08,15,08,47,23.30
2010,08,15,08,48,23.30
2010,08,15,08,49,23.30
2010,08,15,08,50,23.30
2010,08,15,08,51,23.40
2010,08,15,08,52,23.40
2010,08,15,08,53,23.50
2010,08,15,08,54,23.60
2010,08,15,08,55,23.60
2010,08,15,08,56,23.60
2010,08,15,08,57,23.70
2010,08,15,08,58,23.70
2010,08,15,08,59,23.70
2010,08,15,09,00,23.70
2010,08,15,09,01,23.70
2010,08,15,09,02,23.70
2010,08,15,09,03,23.80
2010,08,15,09,04,23.80
2010,08,15,09,05,23.80
2010,08,15,09,06,23.90
2010,08,15,09,07,23.90
2010,08,15,09,08,24.00
2010,08,15,09,09,24.10
2010,08,15,09,10,24.10
2010,08,15,09,11,24.10
2010,08,15,09,12,24.10
2010,08,15,09,13,24.10
2010,08,15,09,14,24.20
2010,08,15,09,15,24.20
2010,08,15,09,16,24.20
2010,08,15,09,17,24.30
2010,08,15,09,18,24.40
2010,08,15,09,19,24.40
2010,08,15,09,20,24.40
2010,08,15,09,21,24.50
2010,08,15,09,22,24.50
2010,08,15,09,23,24.50
2010,08,15,09,24,24.50
2010,08,15,09,25,24.60
2010,08,15,09,26,24.60
2010,08,15,09,27,24.60
2010,08,15,09,28,24.70
2010,08,15,09,29,24.70
2010,08,15,09,30,24.80
2010,08,15,09,31,24.80
2010,08,15,09,32,24.80
2010,08,15,09,33,24.80
2010,08,15,09,34,24.90
2010,08,15,09,35,24.90
2010,08,15,09,36,24.90
2010,08,15,09,37,25.00
2010,08,15,09,38,25.00
2010,08,15,09,39,24.90
2010,08,15,09,40,25.00
2010,08,15,09,41,25.00
2010,08,15,09,42,25.00
2010,08,15,09,43,25.00
2010,08,15,09,44,25.00
2010,08,15,09,45,25.00
2010,08,15,09,46,25.00
2010,08,15,09,47,25.00
2010,08,15,09,48,25.00
2010,08,15,09,49,25.10
2010,08,15,09,50,25.10
2010,08,15,09,51,25.10
2010,08,15,09,52,25.20
2010,08,15,09,53,25.20
2010,08,15,09,54,25.20
2010,08,15,09,55,25.30
2010,08,15,09,56,25.30
2010,08,15,09,57,25.30
2010,08,15,09,58,25.40
2010,08,15,09,59,25.40
2010,08,15,10,00,25.50
2010,08,15,10,01,25.50
2010,08,15,10,02,25.60
2010,08,15,10,03,25.70
2010,08,15,10,04,25.70
2010,08,15,10,05,25.70
2010,08,15,10,06,25.70
2010,08,15,10,07,25.70
2010,08,15,10,08,25.80
2010,08,15,10,09,25.80
2010,08,15,10,10,25.90
2010,08,15,10,11,25.90
2010,08,15,10,12,25.90
2010,08,15,10,13,26.00
2010,08,15,10,14,26.00
2010,08,15,10,15,26.10
2010,08,15,10,16,26.20
2010,08,15,10,17,26.30
2010,08,15,10,18,26.30
2010,08,15,10,19,26.40
2010,08,15,10,20,26.50
2010,08,15,10,21,26.60
2010,08,15,10,22,26.60
2010,08,15,10,23,26.60
2010,08,15,10,24,26.60
2010,08,15,10,25,26.70
2010,08,15,10,26,26.60
2010,08,15,10,27,26.60
2010,08,15,10,28,26.70
2010,08,15,10,29,26.70
2010,08,15,10,30,26.70
2010,08,15,10,31,26.60
2010,08,15,10,32,26.60
2010,08,15,10,33,26.60
2010,08,15,10,34,26.40
2010,08,15,10,35,26.40
2010,08,15,10,36,26.40
2010,08,15,10,37,26.30
2010,08,15,10,38,26.40
2010,08,15,10,39,26.40
2010,08,15,10,40,26.40
2010,08,15,10,41,26.40
2010,08,15,10,42,26.50
2010,08,15,10,43,26.60
2010,08,15,10,44,26.60
2010,08,15,10,45,26.60
2010,08,15,10,46,26.60
2010,08,15,10,47,26.70
2010,08,15,10,48,26.70
2010,08,15,10,49,26.80
2010,08,15,10,50,26.80
2010,08,15,10,51,26.80
2010,08,15,10,52,26.90
2010,08,15,10,53,26.90
2010,08,15,10,54,27.00
2010,08,15,10,55,27.10
2010,08,15,10,56,27.10
2010,08,15,10,57,27.10
2010,08,15,10,58,27.20
2010,08,15,10,59,27.20
2010,08,15,11,00,27.30
2010,08,15,11,01,27.30
2010,08,15,11,02,27.30
2010,08,15,11,03,27.30
2010,08,15,11,04,27.30
2010,08,15,11,05,27.30
2010,08,15,11,06,27.30
2010,08,15,11,07,27.30
2010,08,15,11,08,27.40
2010,08,15,11,09,27.40
2010,08,15,11,10,27.40
2010,08,15,11,11,27.40
2010,08,15,11,12,27.40
2010,08,15,11,13,27.40
2010,08,15,11,14,27.30
2010,08,15,11,15,27.40
2010,08,15,11,16,27.50
2010,08,15,11,17,27.60
2010,08,15,11,18,27.70
2010,08,15,11,19,27.80
2010,08,15,11,20,27.90
2010,08,15,11,21,28.00
2010,08,15,11,22,28.10
2010,08,15,11,23,28.20
2010,08,15,11,24,28.30
2010,08,15,11,25,28.30
2010,08,15,11,26,28.30
2010,08,15,11,27,28.40
2010,08,15,11,28,28.40
2010,08,15,11,29,28.40
2010,08,15,11,30,28.40
2010,08,15,11,31,28.50
2010,08,15,11,32,28.60
2010,08,15,11,33,28.60
2010,08,15,11,34,28.70
2010,08,15,11,35,28.80
2010,08,15,11,36,28.90
2010,08,15,11,37,28.90
2010,08,15,11,38,28.90
2010,08,15,11,39,28.90
2010,08,15,11,40,28.90
2010,08,15,11,41,28.90
2010,08,15,11,42,28.90
2010,08,15,11,43,29.00
2010,08,15,11,44,29.10
2010,08,15,11,45,29.20
2010,08,15,11,46,29.30
2010,08,15,11,47,29.40
2010,08,15,11,48,29.60
2010,08,15,11,49,29.60
2010,08,15,11,50,29.60
2010,08,15,11,51,29.60
2010,08,15,11,52,29.60
2010,08,15,11,53,29.50
2010,08,15,11,54,29.50
2010,08,15,11,55,29.50
2010,08,15,11,56,29.40
2010,08,15,11,57,29.50
2010,08,15,11,58,29.50
2010,08,15,11,59,29.50
2010,08,15,12,00,29.50
2010,08,15,12,01,29.40
2010,08,15,12,02,29.40
2010,08,15,12,03,29.40
2010,08,15,12,04,29.40
2010,08,15,12,05,29.40
2010,08,15,12,06,29.40
2010,08,15,12,07,29.50
2010,08,15,12,08,29.50
2010,08,15,12,09,29.50
2010,08,15,12,10,29.50
2010,08,15,12,11,29.50
2010,08,15,12,12,29.50
2010,08,15,12,13,29.50
2010,08,15,12,14,29.50
2010,08,15,12,15,29.40
2010,08,15,12,16,29.40
2010,08,15,12,17,29.50
2010,08,15,12,18,29.60
2010,08,15,12,19,29.60
2010,08,15,12,20,29.70
2010,08,15,12,21,29.70
2010,08,15,12,22,29.80
2010,08,15,12,23,29.80
2010,08,15,12,24,29.90
2010,08,15,12,25,30.00
2010,08,15,12,26,30.10
2010,08,15,12,27,30.20
2010,08,15,12,28,30.30
2010,08,15,12,29,30.30
2010,08,15,12,30,30.30
2010,08,15,12,31,30.30
2010,08,15,12,32,30.30
2010,08,15,12,33,30.20
2010,08,15,12,34,30.20
2010,08,15,12,35,30.20
2010,08,15,12,36,30.20
2010,08,15,12,37,30.20
2010,08,15,12,38,30.20
2010,08,15,12,39,30.30
2010,08,15,12,40,30.30
2010,08,15,12,41,30.30
2010,08,15,12,42,30.30
2010,08,15,12,43,30.40
2010,08,15,12,44,30.40
2010,08,15,12,45,30.50
2010,08,15,12,46,30.60
2010,08,15,12,47,30.60
2010,08,15,12,48,30.70
2010,08,15,12,49,30.60
2010,08,15,12,50,30.30
2010,08,15,12,51,29.50
2010,08,15,12,52,28.90
2010,08,15,12,53,28.40
2010,08,15,12,54,27.80
2010,08,15,12,55,27.10
2010,08,15,12,56,26.50
2010,08,15,12,57,25.80
2010,08,15,12,58,25.10
2010,08,15,12,59,24.60
2010,08,15,13,00,24.20
2010,08,15,13,01,23.80
2010,08,15,13,02,23.40
2010,08,15,13,03,23.20
2010,08,15,13,04,23.00
2010,08,15,13,05,22.60
2010,08,15,13,06,22.10
2010,08,15,13,07,21.80
2010,08,15,13,08,21.60
2010,08,15,13,09,21.40
2010,08,15,13,10,21.20
2010,08,15,13,11,21.00
2010,08,15,13,12,20.90
2010,08,15,13,13,20.80
2010,08,15,13,14,20.70
2010,08,15,13,15,20.60
2010,08,15,13,16,20.50
2010,08,15,13,17,20.40
2010,08,15,13,18,20.30
2010,08,15,13,19,20.30
2010,08,15,13,20,20.20
2010,08,15,13,21,20.00
2010,08,15,13,22,19.90
2010,08,15,13,23,19.80
2010,08,15,13,24,19.80
2010,08,15,13,25,19.80
2010,08,15,13,26,19.70
2010,08,15,13,27,19.70
2010,08,15,13,28,19.70
2010,08,15,13,29,19.80
2010,08,15,13,30,19.70
2010,08,15,13,31,19.60
2010,08,15,13,32,19.60
2010,08,15,13,33,19.60
2010,08,15,13,34,19.50
2010,08,15,13,35,19.60
2010,08,15,13,36,19.60
2010,08,15,13,37,19.50
2010,08,15,13,38,19.60
2010,08,15,13,39,19.60
2010,08,15,13,40,19.70
2010,08,15,13,41,19.70
2010,08,15,13,42,19.60
2010,08,15,13,43,19.60
2010,08,15,13,44,19.50
2010,08,15,13,45,19.50
2010,08,15,13,46,19.40
2010,08,15,13,47,19.40
2010,08,15,13,48,19.30
2010,08,15,13,49,19.20
2010,08,15,13,50,19.10
2010,08,15,13,51,19.10
2010,08,15,13,52,19.10
2010,08,15,13,53,19.10
2010,08,15,13,54,19.10
2010,08,15,13,55,19.10
2010,08,15,13,56,19.10
2010,08,15,13,57,19.10
2010,08,15,13,58,19.20
2010,08,15,13,59,19.20
2010,08,15,14,00,19.20
2010,08,15,14,01,19.10
2010,08,15,14,02,19.00
2010,08,15,14,03,18.90
2010,08,15,14,04,18.90
2010,08,15,14,05,18.70
2010,08,15,14,06,18.60
2010,08,15,14,07,18.50
2010,08,15,14,08,18.60
2010,08,15,14,09,18.60
2010,08,15,14,10,18.70
2010,08,15,14,11,18.70
2010,08,15,14,12,18.70
2010,08,15,14,13,18.80
2010,08,15,14,14,18.90
2010,08,15,14,15,18.90
2010,08,15,14,16,18.90
2010,08,15,14,17,19.10
2010,08,15,14,18,19.20
2010,08,15,14,19,19.20
2010,08,15,14,20,19.30
2010,08,15,14,21,19.30
2010,08,15,14,22,19.40
2010,08,15,14,23,19.40
2010,08,15,14,24,19.40
2010,08,15,14,25,19.40
2010,08,15,14,26,19.50
2010,08,15,14,27,19.60
2010,08,15,14,28,19.70
2010,08,15,14,29,19.70
2010,08,15,14,30,19.80
2010,08,15,14,31,19.80
2010,08,15,14,32,19.90
2010,08,15,14,33,19.90
2010,08,15,14,34,20.00
2010,08,15,14,35,20.10
2010,08,15,14,36,20.20
2010,08,15,14,37,20.20
2010,08,15,14,38,20.20
2010,08,15,14,39,20.20
2010,08,15,14,40,20.20
2010,08,15,14,41,20.30
2010,08,15,14,42,20.40
2010,08,15,14,43,20.50
2010,08,15,14,44,20.60
2010,08,15,14,45,20.70
2010,08,15,14,46,20.80
2010,08,15,14,47,20.90
2010,08,15,14,48,20.90
2010,08,15,14,49,21.00
2010,08,15,14,50,21.00
2010,08,15,14,51,21.10
2010,08,15,14,52,21.10
2010,08,15,14,53,21.20
2010,08,15,14,54,21.30
2010,08,15,14,55,21.30
2010,08,15,14,56,21.40
2010,08,15,14,57,21.40
2010,08,15,14,58,21.40
2010,08,15,14,59,21.50
2010,08,15,15,00,21.60
2010,08,15,15,01,21.60
2010,08,15,15,02,21.60
2010,08,15,15,03,21.60
2010,08,15,15,04,21.60
2010,08,15,15,05,21.60
2010,08,15,15,06,21.60
2010,08,15,15,07,21.70
2010,08,15,15,08,21.90
2010,08,15,15,09,22.00
2010,08,15,15,10,22.00
2010,08,15,15,11,22.10
2010,08,15,15,12,22.00
2010,08,15,15,13,22.10
2010,08,15,15,14,22.10
2010,08,15,15,15,22.20
2010,08,15,15,16,22.10
2010,08,15,15,17,22.10
2010,08,15,15,18,22.10
2010,08,15,15,19,22.10
2010,08,15,15,20,22.10
2010,08,15,15,21,22.10
2010,08,15,15,22,22.10
2010,08,15,15,23,22.10
2010,08,15,15,24,22.10
2010,08,15,15,25,22.10
2010,08,15,15,26,22.00
2010,08,15,15,27,22.00
2010,08,15,15,28,22.10
2010,08,15,15,29,22.10
2010,08,15,15,30,22.10
2010,08,15,15,31,22.10
2010,08,15,15,32,22.10
2010,08,15,15,33,22.20
2010,08,15,15,34,22.20
2010,08,15,15,35,22.30
2010,08,15,15,36,22.40
2010,08,15,15,37,22.40
2010,08,15,15,38,22.50
2010,08,15,15,39,22.50
2010,08,15,15,40,22.60
2010,08,15,15,41,22.70
2010,08,15,15,42,22.80
2010,08,15,15,43,22.90
2010,08,15,15,44,22.90
2010,08,15,15,45,22.90
2010,08,15,15,46,23.00
2010,08,15,15,47,23.10
2010,08,15,15,48,23.00
2010,08,15,15,49,22.90
2010,08,15,15,50,22.90
2010,08,15,15,51,22.90
2010,08,15,15,52,23.00
2010,08,15,15,53,23.10
2010,08,15,15,54,23.20
2010,08,15,15,55,23.30
2010,08,15,15,56,23.40
2010,08,15,15,57,23.50
2010,08,15,15,58,23.60
2010,08,15,15,59,23.70
2010,08,15,16,00,23.70
2010,08,15,16,01,23.70
2010,08,15,16,02,23.80
2010,08,15,16,03,24.00
2010,08,15,16,04,24.10
2010,08,15,16,05,24.10
2010,08,15,16,06,24.10
2010,08,15,16,07,24.10
2010,08,15,16,08,24.20
2010,08,15,16,09,24.20
2010,08,15,16,10,24.10
2010,08,15,16,11,24.10
2010,08,15,16,12,24.10
2010,08,15,16,13,24.10
2010,08,15,16,14,24.00
2010,08,15,16,15,23.90
2010,08,15,16,16,23.80
2010,08,15,16,17,23.70
2010,08,15,16,18,23.60
2010,08,15,16,19,23.30
2010,08,15,16,20,23.20
2010,08,15,16,21,23.00
2010,08,15,16,22,22.70
2010,08,15,16,23,22.50
2010,08,15,16,24,22.30
2010,08,15,16,25,22.20
2010,08,15,16,26,22.10
2010,08,15,16,27,22.00
2010,08,15,16,28,22.00
2010,08,15,16,29,22.00
2010,08,15,16,30,22.00
2010,08,15,16,31,22.20
2010,08,15,16,32,22.20
2010,08,15,16,33,22.20
2010,08,15,16,34,22.20
2010,08,15,16,35,22.00
2010,08,15,16,36,22.00
2010,08,15,16,37,22.00
2010,08,15,16,38,22.00
2010,08,15,16,39,22.00
2010,08,15,16,40,22.00
2010,08,15,16,41,22.10
2010,08,15,16,42,22.10
2010,08,15,16,43,22.20
2010,08,15,16,44,22.30
2010,08,15,16,45,22.30
2010,08,15,16,46,22.60
2010,08,15,16,47,22.70
2010,08,15,16,48,22.90
2010,08,15,16,49,23.10
2010,08,15,16,50,23.30
2010,08,15,16,51,23.40
2010,08,15,16,52,23.40
2010,08,15,16,53,23.40
2010,08,15,16,54,23.40
2010,08,15,16,55,23.40
2010,08,15,16,56,23.40
2010,08,15,16,57,23.40
2010,08,15,16,58,23.40
2010,08,15,16,59,23.40
2010,08,15,17,00,23.50
2010,08,15,17,01,23.60
2010,08,15,17,02,23.60
2010,08,15,17,03,23.70
2010,08,15,17,04,23.70
2010,08,15,17,05,23.50
2010,08,15,17,06,23.40
2010,08,15,17,07,23.20
2010,08,15,17,08,23.10
2010,08,15,17,09,23.10
2010,08,15,17,10,23.10
2010,08,15,17,11,23.00
2010,08,15,17,12,22.90
2010,08,15,17,13,22.90
2010,08,15,17,14,22.80
2010,08,15,17,15,22.70
2010,08,15,17,16,22.60
2010,08,15,17,17,22.50
2010,08,15,17,18,22.40
2010,08,15,17,19,22.30